{"data":{"norad_id":53163,"epoch":"2026-05-24T19:33:26.431200Z","epoch_age_seconds":91213,"freshness":"FRESH","line1":"1 53163U 22083AH  26144.81488925 -.00000037  00000+0  15748-4 0  9994","line2":"2 53163  53.2124 182.5250 0001121  70.0136 290.0976 15.08833207212850","mean_motion":15.08833207,"eccentricity":0.0001121,"inclination_deg":53.2124,"raan_deg":182.525,"arg_perigee_deg":70.0136,"mean_anomaly_deg":290.0976,"bstar":1.5748e-5,"rev_number":21285,"period_min":95.437984352369,"perigee_km":538.98865580622,"apogee_km":540.53964924462,"semimajor_km":6917.9011525254,"source":"CELESTRAK","updated_at":"2026-05-25T13:38:17.322010Z"}}